Mitchell, SD

10:21 PM CST on November 11, 2019 (GMT -0600)
Mitchell Municipal

Weather History for KMHE - October, 2019

Change the Weather History Date:

Wednesday, October 23, 2019

  Actual Average Record
Temperature  
Mean Temperature 36 °F 47 °F  
Max Temperature 41 °F 59 °F 87 °F (1927)
Min Temperature 31 °F 35 °F 13 °F (1917)
Degree Days  
Heating Degree Days 29 18  
Month to date heating degree days 394 321  
Since 1 July heating degree days 442 479  
Cooling Degree Days 0 0  
Month to date cooling degree days 0 7  
Year to date cooling degree days 937 824  
Moisture  
Dew Point 33 °F    
Average Humidity 85    
Maximum Humidity 92    
Minimum Humidity 78    
Precipitation  
Precipitation T in 0.05 in 1.22 in (1943)
Month to date precipitation 1.33 1.35  
Year to date precipitation 34.00 20.02  
Snow  
Snow 0.00 in - 6.00 in (1995)
Month to date snowfall T  
Since 1 July snowfall T  
Since 1 September snowfall T  
Snow Depth 0.00 in    
Sea Level Pressure  
Sea Level Pressure 30.02 in    
Wind  
Wind Speed 9 mph (North)    
Max Wind Speed 20 mph    
Max Gust Speed 24 mph    
Visibility 10 miles    
Events Rain    
T = Trace of Precipitation, MM = Missing Value Source: NWS Daily Summary

Daily Weather History Graph

Daily Weather History Graph

Search for Another Location

Airport or City:

Astronomy

Oct. 23, 2019 Rise Set
Actual Time 7:56 AM CDT 6:36 PM CDT
Civil Twilight 7:26 AM CDT 7:05 PM CDT
Nautical Twilight 6:53 AM CDT 7:38 PM CDT
Astronomical Twilight 6:20 AM CDT 8:12 PM CDT
Moon 2:02 AM CDT (10/23) 4:40 PM CDT (10/23)
Length of Visible Light 11h 38m
Length of Day
10h 39m
Waning Crescent, 26% of the Moon is Illuminated
Oct 23
Waning Crescent
Oct 27
New
Nov 4
First Quarter
Nov 12
Full
Nov 19
Last Quarter

Hourly Weather History & Observations

Time (CDT) Temp. Windchill Dew Point Humidity Pressure Visibility Wind Dir Wind Speed Gust Speed Precip Events Conditions
12:53 AM 39.0 °F - 35.1 °F 86% 29.80 in 10.0 mi Calm Calm - N/A   Mostly Cloudy
1:53 AM 39.0 °F 34.8 °F 36.0 °F 89% 29.81 in 10.0 mi NE 5.8 mph - N/A   Overcast
3:53 AM 39.9 °F 35.1 °F 36.0 °F 86% 29.80 in 10.0 mi NE 6.9 mph - N/A   Overcast
4:53 AM 39.9 °F 35.1 °F 35.1 °F 83% 29.79 in 10.0 mi East 6.9 mph - N/A   Overcast
5:53 AM 39.9 °F 35.1 °F 34.0 °F 79% 29.81 in 10.0 mi ENE 6.9 mph - N/A   Overcast
6:53 AM 39.9 °F 35.1 °F 33.1 °F 77% 29.83 in 10.0 mi NE 6.9 mph - N/A   Overcast
7:53 AM 39.9 °F 33.9 °F 33.1 °F 77% 29.85 in 10.0 mi NE 9.2 mph - 0.00 in Rain Light Rain
8:53 AM 39.0 °F 34.0 °F 34.0 °F 82% 29.89 in 10.0 mi North 6.9 mph - 0.00 in Rain Light Rain
9:53 AM 39.0 °F 32.3 °F 35.1 °F 86% 29.93 in 10.0 mi North 10.4 mph - 0.00 in   Overcast
10:53 AM 39.0 °F 31.4 °F 34.0 °F 82% 29.95 in 10.0 mi NE 12.7 mph - N/A   Overcast
11:07 AM 39.0 °F 31.8 °F 34.0 °F 82% 29.92 in 10.0 mi NE 11.5 mph - N/A   Overcast
11:53 AM 39.0 °F 31.8 °F 35.1 °F 86% 29.97 in 10.0 mi NNE 11.5 mph - 0.00 in Rain Light Rain
12:11 PM 39.0 °F 31.8 °F 35.1 °F 86% 29.95 in 8.0 mi NNE 11.5 mph - 0.00 in Rain Light Rain
12:53 PM 37.9 °F 31.5 °F 35.1 °F 89% 30.00 in 4.0 mi North 9.2 mph - 0.00 in Rain Light Rain
1:18 PM 37.9 °F 30.9 °F 35.1 °F 89% 29.98 in 5.0 mi North 10.4 mph - 0.00 in Rain Light Rain
1:53 PM 39.0 °F 31.8 °F 35.1 °F 86% 30.02 in 10.0 mi North 11.5 mph - 0.00 in Rain Light Rain
2:53 PM 37.9 °F 28.9 °F 35.1 °F 89% 30.05 in 10.0 mi North 16.1 mph 21.9 mph 0.00 in Rain Light Rain
3:02 PM 37.9 °F 27.9 °F 33.1 °F 83% 30.03 in 10.0 mi North 19.6 mph 24.2 mph 0.00 in Rain Light Rain
3:11 PM 37.9 °F 28.5 °F 33.1 °F 83% 30.03 in 10.0 mi North 17.3 mph - 0.00 in   Overcast
3:34 PM 37.0 °F 27.7 °F 32.0 °F 82% 30.04 in 10.0 mi North 16.1 mph - 0.00 in Rain Light Rain
3:50 PM 37.4 °F 29.8 °F 33.8 °F 87% 30.06 in 10.0 mi NNW 11.5 mph - 0.00 in Rain Light Rain
3:53 PM 37.0 °F 27.4 °F 34.0 °F 89% 30.09 in 10.0 mi North 17.3 mph - 0.00 in Rain Light Rain
4:53 PM 37.0 °F 31.0 °F 33.1 °F 86% 30.14 in 10.0 mi NNW 8.1 mph - 0.00 in   Overcast
5:53 PM 37.9 °F 32.1 °F 34.0 °F 86% 30.17 in 10.0 mi NW 8.1 mph - N/A   Overcast
6:53 PM 37.9 °F 30.0 °F 32.0 °F 79% 30.22 in 10.0 mi NNW 12.7 mph - N/A   Overcast
7:53 PM 36.0 °F 29.0 °F 30.0 °F 79% 30.26 in 10.0 mi NW 9.2 mph - N/A   Overcast
8:53 PM 36.0 °F 28.5 °F 30.0 °F 79% 30.29 in 10.0 mi NW 10.4 mph - N/A   Overcast
9:53 PM 36.0 °F 29.6 °F 30.9 °F 82% 30.30 in 10.0 mi NW 8.1 mph - N/A   Overcast
10:53 PM 34.0 °F 27.2 °F 28.0 °F 79% 30.32 in 10.0 mi NW 8.1 mph - N/A   Clear
11:53 PM 32.0 °F 24.2 °F 27.0 °F 82% 30.32 in 10.0 mi NW 9.2 mph - N/A   Partly Cloudy